This is the latest recevied weather packets stored in our database for station/object KD4MBW. If no packets are shown the sender has not sent any weather packets the latest 10 day(s).
| Time | Temp. | Humidity | Pressure | Rain* | Wind** | Luminosity | Snow |
|---|---|---|---|---|---|---|---|
| 1788015725 | 24.44° C | 94% | 1019.7 hPa | 0 mm | - | 177 W/m² | - |
| 1788015421 | 24.44° C | 94% | 1019.8 hPa | 0 mm | - | 151 W/m² | - |
| 1788015115 | 24.44° C | 94% | 1019.7 hPa | 0 mm | - | 111 W/m² | - |
| 1788014814 | 24.44° C | 96% | 1019.7 hPa | 0 mm | - | 102 W/m² | - |
| 1788014508 | 25° C | 99% | 1019.7 hPa | 0 mm | - | 117 W/m² | - |
| 1788014204 | 25° C | 98% | 1019.6 hPa | 0 mm | - | 129 W/m² | - |
| 1788013903 | 25° C | 98% | 1019.5 hPa | 0 mm | - | 100 W/m² | - |
| 1788013603 | 25° C | 98% | 1019.5 hPa | 0 mm | - | 58 W/m² | - |
| 1788013297 | 25° C | 97% | 1019.3 hPa | 0 mm | - | 77 W/m² | - |
| 1788012992 | 25° C | 97% | 1019 hPa | 0 mm | - | 145 W/m² | - |
| 1788012686 | 25° C | 97% | 1019.1 hPa | 0 mm | - | 183 W/m² | - |
| 1788012381 | 25° C | 98% | 1019 hPa | 0 mm | - | 165 W/m² | - |
| 1788012076 | 25° C | 98% | 1019 hPa | 0 mm | - | 154 W/m² | - |
| 1788011775 | 24.44° C | 99% | 1019 hPa | 0 mm | - | 160 W/m² | - |
| 1788011464 | 24.44° C | 99% | 1019 hPa | 0 mm | - | 165 W/m² | - |
| 1788011163 | 24.44° C | 99% | 1018.8 hPa | 0 mm | - | 152 W/m² | - |
| 1788010858 | 23.89° C | 99% | 1018.7 hPa | 0 mm | - | 135 W/m² | - |
| 1788010557 | 23.89° C | 99% | 1018.8 hPa | 0 mm | - | 117 W/m² | - |
| 1788010252 | 23.89° C | 99% | 1018.6 hPa | 0 mm | - | 99 W/m² | - |
| 1788009951 | 23.89° C | 99% | 1018.5 hPa | 0 mm | - | 83 W/m² | - |
| 1788009650 | 23.89° C | 99% | 1018.7 hPa | 0 mm | - | 70 W/m² | - |
| 1788009344 | 23.89° C | 99% | 1018.7 hPa | 0 mm | - | 59 W/m² | - |
| 1788009039 | 23.89° C | 99% | 1018.6 hPa | 0 mm | - | 46 W/m² | - |
| 1788008734 | 23.89° C | 99% | 1018.4 hPa | 0 mm | - | 40 W/m² | - |
| 1788008434 | 23.89° C | 99% | 1018.5 hPa | 0 mm | - | 34 W/m² | - |
* Rain latest hour (hover to see other rain measurements)
** Current wind speed in m/s (hover to see current wind gust speed)